Time,TemperatureF,DewpointF,PressureIn,WindDirection,WindDirectionDegrees,WindSpeedMPH,WindSpeedGustMPH,Humidity,HourlyPrecipIn,Conditions,Clouds,dailyrainin,SoftwareType,DateUTC
2013-03-24 00:00:00,20.0,10.0,30.08,ENE,68,5.6,7.8,65,0.00,,,0.00,WUHU216HW,2013-03-23 23:00:00,
2013-03-24 00:05:00,19.8,10.2,30.09,ENE,68,2.9,7.8,66,0.00,,,0.00,WUHU216HW,2013-03-23 23:05:00,
2013-03-24 00:10:00,19.6,10.4,30.09,ENE,68,2.0,6.3,67,0.00,,,0.00,WUHU216HW,2013-03-23 23:10:00,
2013-03-24 00:15:00,19.4,9.8,30.09,ENE,68,2.0,6.9,66,0.00,,,0.00,WUHU216HW,2013-03-23 23:15:00,
2013-03-24 00:20:00,19.1,9.8,30.08,ENE,68,3.1,6.9,67,0.00,,,0.00,WUHU216HW,2013-03-23 23:20:00,
2013-03-24 00:25:00,19.1,10.2,30.09,ENE,68,2.5,4.7,68,0.00,,,0.00,WUHU216HW,2013-03-23 23:25:00,
2013-03-24 00:30:00,18.9,10.4,30.09,ENE,68,2.5,3.8,69,0.00,,,0.00,WUHU216HW,2013-03-23 23:30:00,
2013-03-24 00:35:00,18.9,10.4,30.09,ENE,68,2.0,4.5,69,0.00,,,0.00,WUHU216HW,2013-03-23 23:35:00,
2013-03-24 00:40:00,18.7,10.2,30.09,ENE,68,2.7,4.5,69,0.00,,,0.00,WUHU216HW,2013-03-23 23:40:00,
2013-03-24 00:45:00,18.5,10.0,30.09,ENE,68,2.2,3.8,69,0.00,,,0.00,WUHU216HW,2013-03-23 23:45:00,
2013-03-24 00:50:00,18.4,9.8,30.09,ENE,68,2.0,3.8,69,0.00,,,0.00,WUHU216HW,2013-03-23 23:50:00,
2013-03-24 00:55:00,18.4,10.2,30.09,ENE,68,1.1,2.5,70,0.00,,,0.00,WUHU216HW,2013-03-23 23:55:00,
2013-03-24 01:00:00,18.0,10.2,30.09,ENE,68,2.0,2.9,71,0.00,,,0.00,WUHU216HW,2013-03-24 00:00:00,
2013-03-24 01:05:00,18.0,10.2,30.09,ENE,68,2.0,2.9,71,0.00,,,0.00,WUHU216HW,2013-03-24 00:05:00,
2013-03-24 01:10:00,17.6,9.8,30.09,ENE,68,2.5,3.8,71,0.00,,,0.00,WUHU216HW,2013-03-24 00:10:00,
2013-03-24 01:15:00,17.6,9.8,30.09,ENE,68,2.0,3.8,71,0.00,,,0.00,WUHU216HW,2013-03-24 00:15:00,
2013-03-24 01:20:00,17.5,9.6,30.09,ENE,68,2.2,3.4,71,0.00,,,0.00,WUHU216HW,2013-03-24 00:20:00,
2013-03-24 01:25:00,17.3,9.5,30.09,ENE,68,2.5,3.6,71,0.00,,,0.00,WUHU216HW,2013-03-24 00:25:00,
2013-03-24 01:30:00,17.3,9.5,30.09,ENE,68,4.0,4.0,71,0.00,,,0.00,WUHU216HW,2013-03-24 00:30:00,
2013-03-24 01:35:00,17.1,9.3,30.09,ENE,68,2.0,4.7,71,0.00,,,0.00,WUHU216HW,2013-03-24 00:35:00,
2013-03-24 01:40:00,17.1,9.3,30.09,ENE,68,5.4,5.4,71,0.00,,,0.00,WUHU216HW,2013-03-24 00:40:00,
2013-03-24 01:45:00,16.9,9.1,30.09,ENE,68,2.2,5.4,71,0.00,,,0.00,WUHU216HW,2013-03-24 00:45:00,
2013-03-24 01:50:00,16.7,8.9,30.09,ENE,68,5.6,5.6,71,0.00,,,0.00,WUHU216HW,2013-03-24 00:50:00,
2013-03-24 01:55:00,16.7,8.9,30.08,ENE,68,2.7,6.5,71,0.00,,,0.00,WUHU216HW,2013-03-24 00:55:00,
2013-03-24 02:00:00,16.6,8.7,30.08,ENE,68,3.4,6.5,71,0.00,,,0.00,WUHU216HW,2013-03-24 01:00:00,
2013-03-24 02:05:00,16.6,8.7,30.08,ENE,68,3.4,6.5,71,0.00,,,0.00,WUHU216HW,2013-03-24 01:05:00,
2013-03-24 02:10:00,16.6,8.7,30.08,ENE,68,1.8,5.4,71,0.00,,,0.00,WUHU216HW,2013-03-24 01:10:00,
2013-03-24 02:15:00,16.6,8.7,30.08,ENE,68,3.8,5.4,71,0.00,,,0.00,WUHU216HW,2013-03-24 01:15:00,
2013-03-24 02:20:00,16.4,8.6,30.08,ENE,68,3.8,4.7,71,0.00,,,0.00,WUHU216HW,2013-03-24 01:20:00,
2013-03-24 02:25:00,16.4,8.9,30.09,ENE,68,0.9,4.7,72,0.00,,,0.00,WUHU216HW,2013-03-24 01:25:00,
2013-03-24 02:30:00,16.4,8.9,30.09,ENE,68,1.8,4.7,72,0.00,,,0.00,WUHU216HW,2013-03-24 01:30:00,
2013-03-24 02:35:00,16.6,9.1,30.08,ENE,68,2.5,4.7,72,0.00,,,0.00,WUHU216HW,2013-03-24 01:35:00,
2013-03-24 02:40:00,16.6,9.1,30.08,ENE,68,2.0,4.7,72,0.00,,,0.00,WUHU216HW,2013-03-24 01:40:00,
2013-03-24 02:45:00,16.6,9.1,30.08,ENE,68,2.5,4.0,72,0.00,,,0.00,WUHU216HW,2013-03-24 01:45:00,
2013-03-24 02:50:00,16.6,9.1,30.08,ENE,68,2.5,5.6,72,0.00,,,0.00,WUHU216HW,2013-03-24 01:50:00,
2013-03-24 02:55:00,16.6,9.4,30.08,ENE,68,0.9,6.3,73,0.00,,,0.00,WUHU216HW,2013-03-24 01:55:00,
2013-03-24 03:00:00,16.6,9.1,30.08,ENE,68,5.8,6.3,72,0.00,,,0.00,WUHU216HW,2013-03-24 02:00:00,
2013-03-24 03:05:00,16.6,9.1,30.08,ENE,68,0.4,5.8,72,0.00,,,0.00,WUHU216HW,2013-03-24 02:05:00,
2013-03-24 03:10:00,16.6,9.4,30.07,ENE,68,2.7,5.8,73,0.00,,,0.00,WUHU216HW,2013-03-24 02:10:00,
2013-03-24 03:15:00,16.7,9.6,30.08,ENE,68,3.6,3.6,73,0.00,,,0.00,WUHU216HW,2013-03-24 02:15:00,
2013-03-24 03:20:00,16.9,9.7,30.07,ENE,68,2.7,4.0,73,0.00,,,0.00,WUHU216HW,2013-03-24 02:20:00,
2013-03-24 03:25:00,16.9,9.5,30.07,ENE,68,5.4,5.4,72,0.00,,,0.00,WUHU216HW,2013-03-24 02:25:00,
2013-03-24 03:30:00,16.9,9.1,30.07,ENE,68,2.0,7.4,71,0.00,,,0.00,WUHU216HW,2013-03-24 02:30:00,
2013-03-24 03:35:00,16.9,9.1,30.07,ENE,68,3.8,7.4,71,0.00,,,0.00,WUHU216HW,2013-03-24 02:35:00,
2013-03-24 03:40:00,16.9,9.1,30.07,ENE,68,3.8,6.3,71,0.00,,,0.00,WUHU216HW,2013-03-24 02:40:00,
2013-03-24 03:45:00,16.9,9.1,30.07,ENE,68,2.7,6.3,71,0.00,,,0.00,WUHU216HW,2013-03-24 02:45:00,
2013-03-24 03:50:00,16.9,9.5,30.07,ENE,68,5.4,6.5,72,0.00,,,0.00,WUHU216HW,2013-03-24 02:50:00,
2013-03-24 03:55:00,16.9,9.5,30.06,ENE,68,6.9,6.9,72,0.00,,,0.00,WUHU216HW,2013-03-24 02:55:00,
2013-03-24 04:00:00,16.9,9.1,30.07,ENE,68,6.7,6.9,71,0.00,,,0.00,WUHU216HW,2013-03-24 03:00:00,
2013-03-24 04:05:00,16.9,9.1,30.07,ENE,68,4.0,6.7,71,0.00,,,0.00,WUHU216HW,2013-03-24 03:05:00,
2013-03-24 04:10:00,16.9,9.1,30.07,ENE,68,0.7,6.7,71,0.00,,,0.00,WUHU216HW,2013-03-24 03:10:00,
2013-03-24 04:15:00,16.9,9.1,30.07,ENE,68,3.4,6.5,71,0.00,,,0.00,WUHU216HW,2013-03-24 03:15:00,
2013-03-24 04:20:00,17.1,9.3,30.07,ENE,68,2.7,6.5,71,0.00,,,0.00,WUHU216HW,2013-03-24 03:20:00,
2013-03-24 04:25:00,16.9,9.1,30.07,ENE,68,1.1,4.7,71,0.00,,,0.00,WUHU216HW,2013-03-24 03:25:00,
2013-03-24 04:30:00,16.9,9.5,30.07,ENE,68,2.0,3.1,72,0.00,,,0.00,WUHU216HW,2013-03-24 03:30:00,
2013-03-24 04:35:00,17.1,9.6,30.06,ENE,68,6.0,6.0,72,0.00,,,0.00,WUHU216HW,2013-03-24 03:35:00,
2013-03-24 04:40:00,17.1,9.6,30.06,ENE,68,1.1,6.0,72,0.00,,,0.00,WUHU216HW,2013-03-24 03:40:00,
2013-03-24 04:45:00,17.3,9.5,30.06,ENE,68,4.3,6.0,71,0.00,,,0.00,WUHU216HW,2013-03-24 03:45:00,
2013-03-24 04:50:00,17.5,9.6,30.05,ENE,68,3.4,6.3,71,0.00,,,0.00,WUHU216HW,2013-03-24 03:50:00,
2013-03-24 04:55:00,17.3,9.5,30.05,ENE,68,4.0,6.3,71,0.00,,,0.00,WUHU216HW,2013-03-24 03:55:00,
2013-03-24 05:00:00,17.3,9.7,30.06,ENE,68,5.4,6.9,72,0.00,,,0.00,WUHU216HW,2013-03-24 04:00:00,
2013-03-24 05:01:00,17.1,9.6,30.06,ENE,68,4.0,6.9,72,0.00,,,0.00,WUHU216HW,2013-03-24 04:01:00,
2013-03-24 05:06:00,17.1,9.6,30.06,ENE,68,1.1,6.9,72,0.00,,,0.00,WUHU216HW,2013-03-24 04:06:00,
2013-03-24 05:11:00,16.9,9.5,30.06,ENE,68,6.9,6.9,72,0.00,,,0.00,WUHU216HW,2013-03-24 04:11:00,
2013-03-24 05:16:00,16.9,9.7,30.06,ENE,68,1.8,6.9,73,0.00,,,0.00,WUHU216HW,2013-03-24 04:16:00,
2013-03-24 05:21:00,16.9,9.7,30.06,ENE,68,2.2,6.9,73,0.00,,,0.00,WUHU216HW,2013-03-24 04:21:00,
2013-03-24 05:26:00,17.1,9.9,30.07,ENE,68,3.6,4.7,73,0.00,,,0.00,WUHU216HW,2013-03-24 04:26:00,
2013-03-24 05:31:00,17.1,9.6,30.07,ENE,68,1.3,4.7,72,0.00,,,0.00,WUHU216HW,2013-03-24 04:31:00,
2013-03-24 05:37:00,17.1,9.6,30.07,ENE,68,1.1,6.3,72,0.00,,,0.00,WUHU216HW,2013-03-24 04:37:00,
2013-03-24 05:42:00,17.1,9.6,30.07,ENE,68,2.9,6.3,72,0.00,,,0.00,WUHU216HW,2013-03-24 04:42:00,
2013-03-24 05:47:00,17.1,9.6,30.07,ENE,68,4.7,6.3,72,0.00,,,0.00,WUHU216HW,2013-03-24 04:47:00,
2013-03-24 05:52:00,17.3,9.7,30.07,ENE,68,4.7,6.3,72,0.00,,,0.00,WUHU216HW,2013-03-24 04:52:00,
2013-03-24 05:57:00,17.3,9.7,30.07,ENE,68,4.0,4.7,72,0.00,,,0.00,WUHU216HW,2013-03-24 04:57:00,
2013-03-24 06:02:00,17.3,9.7,30.07,ENE,68,3.4,4.0,72,0.00,,,0.00,WUHU216HW,2013-03-24 05:02:00,
2013-03-24 06:07:00,17.3,9.5,30.07,ENE,68,4.7,4.7,71,0.00,,,0.00,WUHU216HW,2013-03-24 05:07:00,
2013-03-24 06:12:00,17.3,9.5,30.06,ENE,68,2.7,4.7,71,0.00,,,0.00,WUHU216HW,2013-03-24 05:12:00,
2013-03-24 06:17:00,17.5,9.6,30.07,ENE,68,3.4,4.5,71,0.00,,,0.00,WUHU216HW,2013-03-24 05:17:00,
2013-03-24 06:22:00,17.3,9.5,30.07,ENE,68,6.0,6.0,71,0.00,,,0.00,WUHU216HW,2013-03-24 05:22:00,
2013-03-24 06:27:00,17.6,9.8,30.07,ENE,68,1.8,6.0,71,0.00,,,0.00,WUHU216HW,2013-03-24 05:27:00,
2013-03-24 06:32:00,17.8,10.0,30.06,ENE,68,0.9,6.0,71,0.00,,,0.00,WUHU216HW,2013-03-24 05:32:00,
2013-03-24 06:37:00,17.6,9.8,30.06,ENE,68,3.1,5.4,71,0.00,,,0.00,WUHU216HW,2013-03-24 05:37:00,
2013-03-24 06:42:00,17.3,9.5,30.07,ENE,68,1.8,4.7,71,0.00,,,0.00,WUHU216HW,2013-03-24 05:42:00,
2013-03-24 06:47:00,17.3,9.5,30.06,ENE,68,3.4,4.0,71,0.00,,,0.00,WUHU216HW,2013-03-24 05:47:00,
2013-03-24 06:52:00,17.5,9.6,30.06,ENE,68,4.0,4.7,71,0.00,,,0.00,WUHU216HW,2013-03-24 05:52:00,
2013-03-24 06:57:00,17.5,9.6,30.06,ENE,68,6.7,6.7,71,0.00,,,0.00,WUHU216HW,2013-03-24 05:57:00,
2013-03-24 07:02:00,17.6,9.8,30.07,ENE,68,2.9,6.7,71,0.00,,,0.00,WUHU216HW,2013-03-24 06:02:00,
2013-03-24 07:07:00,17.6,9.8,30.07,ENE,68,4.3,6.5,71,0.00,,,0.00,WUHU216HW,2013-03-24 06:07:00,
2013-03-24 07:12:00,17.8,9.4,30.07,ENE,68,2.7,6.3,69,0.00,,,0.00,WUHU216HW,2013-03-24 06:12:00,
2013-03-24 07:17:00,17.8,9.7,30.07,ENE,68,6.9,6.9,70,0.00,,,0.00,WUHU216HW,2013-03-24 06:17:00,
2013-03-24 07:22:00,18.2,10.0,30.07,ENE,68,2.2,6.9,70,0.00,,,0.00,WUHU216HW,2013-03-24 06:22:00,
2013-03-24 07:27:00,18.4,9.8,30.07,ENE,68,4.0,6.9,69,0.00,,,0.00,WUHU216HW,2013-03-24 06:27:00,
2013-03-24 07:32:00,18.7,9.5,30.07,ENE,68,2.2,7.8,67,0.00,,,0.00,WUHU216HW,2013-03-24 06:32:00,
2013-03-24 07:37:00,18.9,9.6,30.07,ENE,68,6.0,7.8,67,0.00,,,0.00,WUHU216HW,2013-03-24 06:37:00,
2013-03-24 07:42:00,19.1,9.8,30.07,ENE,68,3.4,6.9,67,0.00,,,0.00,WUHU216HW,2013-03-24 06:42:00,
2013-03-24 07:47:00,19.8,9.8,30.07,ENE,68,6.3,6.5,65,0.00,,,0.00,WUHU216HW,2013-03-24 06:47:00,
2013-03-24 07:53:00,19.8,9.5,30.07,ENE,68,1.8,6.5,64,0.00,,,0.00,WUHU216HW,2013-03-24 06:53:00,
2013-03-24 07:58:00,20.0,8.3,30.07,ENE,68,5.4,7.4,60,0.00,,,0.00,WUHU216HW,2013-03-24 06:58:00,
2013-03-24 08:03:00,20.0,7.9,30.07,ENE,68,2.9,7.4,59,0.00,,,0.00,WUHU216HW,2013-03-24 07:03:00,
2013-03-24 08:08:00,20.2,7.7,30.07,ENE,68,6.9,6.9,58,0.00,,,0.00,WUHU216HW,2013-03-24 07:08:00,
2013-03-24 08:13:00,20.2,6.8,30.07,ENE,68,3.1,11.4,56,0.00,,,0.00,WUHU216HW,2013-03-24 07:13:00,
2013-03-24 08:18:00,20.3,7.4,30.07,ENE,68,8.5,11.4,57,0.00,,,0.00,WUHU216HW,2013-03-24 07:18:00,
2013-03-24 08:23:00,20.5,7.2,30.07,ENE,68,5.1,8.5,56,0.00,,,0.00,WUHU216HW,2013-03-24 07:23:00,
2013-03-24 08:28:00,20.7,7.7,30.07,ENE,68,3.4,8.5,57,0.00,,,0.00,WUHU216HW,2013-03-24 07:28:00,
2013-03-24 08:33:00,21.2,8.7,30.07,ENE,68,4.5,6.5,58,0.00,,,0.00,WUHU216HW,2013-03-24 07:33:00,
2013-03-24 08:38:00,21.6,7.4,30.07,ENE,68,6.9,9.8,54,0.00,,,0.00,WUHU216HW,2013-03-24 07:38:00,
2013-03-24 08:43:00,21.6,7.4,30.07,ENE,68,2.2,9.8,54,0.00,,,0.00,WUHU216HW,2013-03-24 07:43:00,
2013-03-24 08:48:00,21.8,7.2,30.08,ESE,113,7.4,9.2,53,0.00,,,0.00,WUHU216HW,2013-03-24 07:48:00,
2013-03-24 08:53:00,22.0,7.7,30.07,ESE,113,9.2,9.2,54,0.00,,,0.00,WUHU216HW,2013-03-24 07:53:00,
2013-03-24 08:58:00,22.3,7.3,30.07,ESE,113,6.3,9.2,52,0.00,,,0.00,WUHU216HW,2013-03-24 07:58:00,
2013-03-24 09:03:00,22.9,7.0,30.07,ESE,113,10.5,10.5,50,0.00,,,0.00,WUHU216HW,2013-03-24 08:03:00,
2013-03-24 09:08:00,23.2,6.8,30.07,NE,45,4.3,10.5,49,0.00,,,0.00,WUHU216HW,2013-03-24 08:08:00,
2013-03-24 09:13:00,23.6,6.8,30.07,ENE,68,4.5,10.5,48,0.00,,,0.00,WUHU216HW,2013-03-24 08:13:00,
2013-03-24 09:18:00,23.9,6.6,30.07,ESE,113,10.5,10.5,47,0.00,,,0.00,WUHU216HW,2013-03-24 08:18:00,
2013-03-24 09:23:00,23.9,5.6,30.07,SE,135,4.7,11.4,45,0.00,,,0.00,WUHU216HW,2013-03-24 08:23:00,
2013-03-24 09:28:00,24.3,6.8,30.07,ESE,113,1.3,11.4,47,0.00,,,0.00,WUHU216HW,2013-03-24 08:28:00,
2013-03-24 09:33:00,24.8,7.8,30.07,North,0,9.2,9.2,48,0.00,,,0.00,WUHU216HW,2013-03-24 08:33:00,
2013-03-24 09:38:00,24.8,7.4,30.07,ENE,68,3.4,10.1,47,0.00,,,0.00,WUHU216HW,2013-03-24 08:38:00,
2013-03-24 09:43:00,25.2,7.2,30.07,ENE,68,6.7,10.1,46,0.00,,,0.00,WUHU216HW,2013-03-24 08:43:00,
2013-03-24 09:48:00,25.6,7.0,30.07,NE,45,9.4,11.0,45,0.00,,,0.00,WUHU216HW,2013-03-24 08:48:00,
2013-03-24 09:53:00,25.4,6.4,30.07,ENE,68,9.4,12.1,44,0.00,,,0.00,WUHU216HW,2013-03-24 08:53:00,
2013-03-24 09:58:00,25.4,6.8,30.07,East,90,4.0,12.1,45,0.00,,,0.00,WUHU216HW,2013-03-24 08:58:00,
2013-03-24 10:03:00,25.9,6.8,30.06,East,90,4.3,9.4,44,0.00,,,0.00,WUHU216HW,2013-03-24 09:03:00,
2013-03-24 10:08:00,26.1,6.6,30.07,ESE,113,12.8,12.8,43,0.00,,,0.00,WUHU216HW,2013-03-24 09:08:00,
2013-03-24 10:13:00,26.3,7.7,30.06,NE,45,6.9,12.8,45,0.00,,,0.00,WUHU216HW,2013-03-24 09:13:00,
2013-03-24 10:18:00,26.5,6.8,30.06,SE,135,6.7,10.5,43,0.00,,,0.00,WUHU216HW,2013-03-24 09:18:00,
2013-03-24 10:23:00,26.5,6.8,30.06,NNE,23,4.3,8.1,43,0.00,,,0.00,WUHU216HW,2013-03-24 09:23:00,
2013-03-24 10:28:00,26.6,8.5,30.06,ENE,68,5.8,8.1,46,0.00,,,0.00,WUHU216HW,2013-03-24 09:28:00,
2013-03-24 10:33:00,27.0,8.4,30.06,East,90,8.3,13.2,45,0.00,,,0.00,WUHU216HW,2013-03-24 09:33:00,
2013-03-24 10:38:00,27.2,6.6,30.05,East,90,5.4,13.2,41,0.00,,,0.00,WUHU216HW,2013-03-24 09:38:00,
2013-03-24 10:43:00,27.5,8.4,30.05,ENE,68,7.2,9.8,44,0.00,,,0.00,WUHU216HW,2013-03-24 09:43:00,
2013-03-24 10:48:00,27.9,7.2,30.05,NNE,23,7.8,9.8,41,0.00,,,0.00,WUHU216HW,2013-03-24 09:48:00,
2013-03-24 10:53:00,28.3,8.6,30.05,NNE,23,3.6,9.2,43,0.00,,,0.00,WUHU216HW,2013-03-24 09:53:00,
2013-03-24 10:58:00,28.8,9.0,30.05,East,90,4.7,8.7,43,0.00,,,0.00,WUHU216HW,2013-03-24 09:58:00,
2013-03-24 11:03:00,28.8,9.5,30.05,ENE,68,6.3,12.5,44,0.00,,,0.00,WUHU216HW,2013-03-24 10:03:00,
2013-03-24 11:08:00,29.0,8.7,30.05,NNE,23,6.7,12.5,42,0.00,,,0.00,WUHU216HW,2013-03-24 10:08:00,
2013-03-24 11:14:00,29.3,9.0,30.05,ESE,113,9.2,9.2,42,0.00,,,0.00,WUHU216HW,2013-03-24 10:14:00,
2013-03-24 11:19:00,29.9,10.0,30.05,East,90,11.6,11.6,43,0.00,,,0.00,WUHU216HW,2013-03-24 10:19:00,
2013-03-24 11:24:00,29.7,7.8,30.05,NE,45,7.6,11.6,39,0.00,,,0.00,WUHU216HW,2013-03-24 10:24:00,
2013-03-24 11:29:00,29.9,9.0,30.05,North,0,3.6,11.6,41,0.00,,,0.00,WUHU216HW,2013-03-24 10:29:00,
2013-03-24 11:34:00,30.2,9.4,30.05,NNE,23,7.2,9.8,41,0.00,,,0.00,WUHU216HW,2013-03-24 10:34:00,
2013-03-24 11:39:00,30.6,10.6,30.05,NE,45,2.9,9.8,43,0.00,,,0.00,WUHU216HW,2013-03-24 10:39:00,
2013-03-24 11:44:00,31.3,9.8,30.04,NE,45,7.6,7.6,40,0.00,,,0.00,WUHU216HW,2013-03-24 10:44:00,
2013-03-24 11:49:00,31.3,8.6,30.04,ESE,113,6.9,9.8,38,0.00,,,0.00,WUHU216HW,2013-03-24 10:49:00,
2013-03-24 11:54:00,31.3,9.8,30.04,NE,45,5.8,9.8,40,0.00,,,0.00,WUHU216HW,2013-03-24 10:54:00,
2013-03-24 11:59:00,31.3,9.8,30.04,North,0,5.8,8.1,40,0.00,,,0.00,WUHU216HW,2013-03-24 10:59:00,
2013-03-24 12:04:00,31.3,9.8,30.04,NNE,23,8.5,8.5,40,0.00,,,0.00,WUHU216HW,2013-03-24 11:04:00,
2013-03-24 12:09:00,31.5,8.7,30.04,ENE,68,5.1,8.9,38,0.00,,,0.00,WUHU216HW,2013-03-24 11:09:00,
2013-03-24 12:14:00,32.0,9.8,30.04,ENE,68,8.5,12.8,39,0.00,,,0.00,WUHU216HW,2013-03-24 11:14:00,
2013-03-24 12:19:00,31.9,9.6,30.04,NE,45,6.3,12.8,39,0.00,,,0.00,WUHU216HW,2013-03-24 11:19:00,
2013-03-24 12:24:00,32.0,11.4,30.04,NNE,23,2.7,10.1,42,0.00,,,0.00,WUHU216HW,2013-03-24 11:24:00,
2013-03-24 12:29:00,32.8,9.8,30.04,NE,45,5.6,7.4,38,0.00,,,0.00,WUHU216HW,2013-03-24 11:29:00,
2013-03-24 12:34:00,32.9,11.3,30.04,NNE,23,8.7,12.3,40,0.00,,,0.00,WUHU216HW,2013-03-24 11:34:00,
2013-03-24 12:39:00,32.9,10.0,30.04,NNE,23,4.7,12.3,38,0.00,,,0.00,WUHU216HW,2013-03-24 11:39:00,
2013-03-24 12:44:00,33.1,10.2,30.04,NE,45,6.5,10.1,38,0.00,,,0.00,WUHU216HW,2013-03-24 11:44:00,
2013-03-24 12:49:00,33.1,11.9,30.04,ENE,68,6.9,9.2,41,0.00,,,0.00,WUHU216HW,2013-03-24 11:49:00,
2013-03-24 12:54:00,33.5,12.2,30.04,ENE,68,3.4,9.2,41,0.00,,,0.00,WUHU216HW,2013-03-24 11:54:00,
2013-03-24 12:59:00,33.8,10.8,30.03,North,0,7.6,9.8,38,0.00,,,0.00,WUHU216HW,2013-03-24 11:59:00,
2013-03-24 13:04:00,33.8,10.8,30.02,East,90,8.9,9.8,38,0.00,,,0.00,WUHU216HW,2013-03-24 12:04:00,
2013-03-24 13:09:00,34.0,11.0,30.02,SE,135,6.5,8.9,38,0.00,,,0.00,WUHU216HW,2013-03-24 12:09:00,
2013-03-24 13:14:00,34.0,9.7,30.02,NE,45,6.3,14.8,36,0.00,,,0.00,WUHU216HW,2013-03-24 12:14:00,
2013-03-24 13:19:00,33.8,10.8,30.02,North,0,6.5,14.8,38,0.00,,,0.00,WUHU216HW,2013-03-24 12:19:00,
2013-03-24 13:24:00,33.5,10.4,30.01,SSE,158,5.4,15.7,38,0.00,,,0.00,WUHU216HW,2013-03-24 12:24:00,
2013-03-24 13:29:00,33.8,12.1,30.01,North,0,5.1,15.7,40,0.00,,,0.00,WUHU216HW,2013-03-24 12:29:00,
2013-03-24 13:34:00,34.0,11.6,30.01,ENE,68,5.6,6.7,39,0.00,,,0.00,WUHU216HW,2013-03-24 12:34:00,
2013-03-24 13:39:00,34.2,10.4,30.01,ENE,68,7.2,14.1,37,0.00,,,0.00,WUHU216HW,2013-03-24 12:39:00,
2013-03-24 13:44:00,34.2,11.2,30.00,NE,45,4.9,14.1,38,0.00,,,0.00,WUHU216HW,2013-03-24 12:44:00,
2013-03-24 13:49:00,34.2,11.8,30.01,ENE,68,5.4,10.5,39,0.00,,,0.00,WUHU216HW,2013-03-24 12:49:00,
2013-03-24 13:54:00,34.2,11.8,30.01,ESE,113,7.2,10.5,39,0.00,,,0.00,WUHU216HW,2013-03-24 12:54:00,
2013-03-24 13:59:00,34.6,12.7,30.01,SE,135,3.8,7.8,40,0.00,,,0.00,WUHU216HW,2013-03-24 12:59:00,
2013-03-24 14:04:00,34.9,9.8,30.00,East,90,9.2,10.7,35,0.00,,,0.00,WUHU216HW,2013-03-24 13:04:00,
2013-03-24 14:09:00,34.7,11.0,30.00,ESE,113,9.8,10.7,37,0.00,,,0.00,WUHU216HW,2013-03-24 13:09:00,
2013-03-24 14:14:00,34.7,11.0,30.00,NE,45,6.9,14.5,37,0.00,,,0.00,WUHU216HW,2013-03-24 13:14:00,
2013-03-24 14:20:00,34.6,10.2,30.00,ESE,113,10.7,14.5,36,0.00,,,0.00,WUHU216HW,2013-03-24 13:20:00,
2013-03-24 14:25:00,34.2,10.4,30.00,ESE,113,6.5,11.6,37,0.00,,,0.00,WUHU216HW,2013-03-24 13:25:00,
2013-03-24 14:30:00,34.6,10.2,29.99,ENE,68,4.0,11.6,36,0.00,,,0.00,WUHU216HW,2013-03-24 13:30:00,
2013-03-24 14:35:00,34.9,11.8,29.99,SE,135,2.9,11.2,38,0.00,,,0.00,WUHU216HW,2013-03-24 13:35:00,
2013-03-24 14:40:00,35.1,11.9,29.99,East,90,9.6,12.5,38,0.00,,,0.00,WUHU216HW,2013-03-24 13:40:00,
2013-03-24 14:45:00,35.1,11.3,29.99,ESE,113,6.5,12.5,37,0.00,,,0.00,WUHU216HW,2013-03-24 13:45:00,
2013-03-24 14:50:00,34.9,10.4,29.99,ENE,68,6.0,13.2,36,0.00,,,0.00,WUHU216HW,2013-03-24 13:50:00,
2013-03-24 14:55:00,35.3,10.2,29.99,SE,135,7.8,13.2,35,0.00,,,0.00,WUHU216HW,2013-03-24 13:55:00,
2013-03-24 15:00:00,35.3,10.2,29.99,ESE,113,9.2,9.8,35,0.00,,,0.00,WUHU216HW,2013-03-24 14:00:00,
2013-03-24 15:05:00,35.1,10.6,29.99,ENE,68,8.7,10.5,36,0.00,,,0.00,WUHU216HW,2013-03-24 14:05:00,
2013-03-24 15:10:00,35.3,8.8,29.99,ESE,113,6.3,14.5,33,0.00,,,0.00,WUHU216HW,2013-03-24 14:10:00,
2013-03-24 15:15:00,35.3,10.8,29.99,ENE,68,7.2,14.5,36,0.00,,,0.00,WUHU216HW,2013-03-24 14:15:00,
2013-03-24 15:20:00,35.3,10.2,29.99,NE,45,6.3,13.4,35,0.00,,,0.00,WUHU216HW,2013-03-24 14:20:00,
2013-03-24 15:25:00,35.3,10.8,29.99,NE,45,6.3,13.4,36,0.00,,,0.00,WUHU216HW,2013-03-24 14:25:00,
2013-03-24 15:30:00,35.1,10.0,29.98,ENE,68,7.4,12.3,35,0.00,,,0.00,WUHU216HW,2013-03-24 14:30:00,
2013-03-24 15:35:00,35.3,11.4,29.99,ESE,113,9.6,12.3,37,0.00,,,0.00,WUHU216HW,2013-03-24 14:35:00,
2013-03-24 15:40:00,35.1,10.6,29.99,ENE,68,11.4,11.4,36,0.00,,,0.00,WUHU216HW,2013-03-24 14:40:00,
2013-03-24 15:45:00,34.9,8.6,29.98,ESE,113,2.5,11.4,33,0.00,,,0.00,WUHU216HW,2013-03-24 14:45:00,
2013-03-24 15:50:00,35.3,11.4,29.98,NE,45,4.3,11.4,37,0.00,,,0.00,WUHU216HW,2013-03-24 14:50:00,
2013-03-24 15:55:00,35.1,10.6,29.98,ENE,68,12.1,12.3,36,0.00,,,0.00,WUHU216HW,2013-03-24 14:55:00,
2013-03-24 16:00:00,34.9,11.1,29.98,NE,45,4.0,12.3,37,0.00,,,0.00,WUHU216HW,2013-03-24 15:00:00,
2013-03-24 16:05:00,34.6,10.2,29.98,ESE,113,9.8,12.1,36,0.00,,,0.00,WUHU216HW,2013-03-24 15:05:00,
2013-03-24 16:10:00,34.6,10.2,29.98,ENE,68,7.6,11.4,36,0.00,,,0.00,WUHU216HW,2013-03-24 15:10:00,
2013-03-24 16:15:00,34.0,10.4,29.97,NE,45,6.9,12.5,37,0.00,,,0.00,WUHU216HW,2013-03-24 15:15:00,
2013-03-24 16:20:00,33.8,10.2,29.97,NE,45,6.3,12.8,37,0.00,,,0.00,WUHU216HW,2013-03-24 15:20:00,
2013-03-24 16:25:00,33.8,10.8,29.97,NNE,23,6.7,12.8,38,0.00,,,0.00,WUHU216HW,2013-03-24 15:25:00,
2013-03-24 16:31:00,33.8,11.4,29.97,North,0,7.6,8.9,39,0.00,,,0.00,WUHU216HW,2013-03-24 15:31:00,
2013-03-24 16:36:00,33.7,11.3,29.97,SE,135,7.6,8.1,39,0.00,,,0.00,WUHU216HW,2013-03-24 15:36:00,
2013-03-24 16:41:00,33.5,11.1,29.97,ENE,68,5.6,8.1,39,0.00,,,0.00,WUHU216HW,2013-03-24 15:41:00,
2013-03-24 16:46:00,33.3,10.4,29.97,ESE,113,13.6,13.6,38,0.00,,,0.00,WUHU216HW,2013-03-24 15:46:00,
2013-03-24 16:51:00,33.1,10.8,29.97,ESE,113,4.0,13.6,39,0.00,,,0.00,WUHU216HW,2013-03-24 15:51:00,
2013-03-24 16:57:00,32.9,11.3,29.97,NNE,23,7.2,13.6,40,0.00,,,0.00,WUHU216HW,2013-03-24 15:57:00,
2013-03-24 17:02:00,32.8,11.1,29.98,ESE,113,3.4,12.1,40,0.00,,,0.00,WUHU216HW,2013-03-24 16:02:00,
2013-03-24 17:07:00,32.8,11.1,29.97,ESE,113,7.6,12.1,40,0.00,,,0.00,WUHU216HW,2013-03-24 16:07:00,
2013-03-24 17:12:00,32.6,10.9,29.98,ESE,113,5.8,9.2,40,0.00,,,0.00,WUHU216HW,2013-03-24 16:12:00,
2013-03-24 17:17:00,32.4,10.8,29.98,NE,45,8.3,9.2,40,0.00,,,0.00,WUHU216HW,2013-03-24 16:17:00,
2013-03-24 17:22:00,32.2,10.0,29.97,ENE,68,4.9,10.5,39,0.00,,,0.00,WUHU216HW,2013-03-24 16:22:00,
2013-03-24 17:27:00,32.0,9.8,29.98,ENE,68,4.3,10.5,39,0.00,,,0.00,WUHU216HW,2013-03-24 16:27:00,
2013-03-24 17:32:00,32.0,9.2,29.98,ENE,68,11.2,11.2,38,0.00,,,0.00,WUHU216HW,2013-03-24 16:32:00,
2013-03-24 17:37:00,31.7,8.2,29.98,NE,45,9.8,14.5,37,0.00,,,0.00,WUHU216HW,2013-03-24 16:37:00,
2013-03-24 17:42:00,31.7,10.6,29.98,East,90,5.4,14.5,41,0.00,,,0.00,WUHU216HW,2013-03-24 16:42:00,
2013-03-24 17:47:00,31.5,12.5,29.98,NE,45,4.9,9.8,45,0.00,,,0.00,WUHU216HW,2013-03-24 16:47:00,
2013-03-24 17:52:00,31.1,13.1,29.98,SE,135,6.0,10.7,47,0.00,,,0.00,WUHU216HW,2013-03-24 16:52:00,
2013-03-24 17:57:00,30.8,13.3,29.98,ESE,113,6.3,10.7,48,0.00,,,0.00,WUHU216HW,2013-03-24 16:57:00,
2013-03-24 18:02:00,30.6,13.1,29.99,NNE,23,4.7,8.9,48,0.00,,,0.00,WUHU216HW,2013-03-24 17:02:00,
2013-03-24 18:07:00,30.4,14.1,29.99,ENE,68,3.4,8.3,50,0.00,,,0.00,WUHU216HW,2013-03-24 17:07:00,
2013-03-24 18:12:00,30.2,14.3,29.99,ENE,68,4.3,6.7,51,0.00,,,0.00,WUHU216HW,2013-03-24 17:12:00,
2013-03-24 18:17:00,30.1,14.5,29.99,NE,45,3.4,6.7,52,0.00,,,0.00,WUHU216HW,2013-03-24 17:17:00,
2013-03-24 18:22:00,29.9,14.4,29.98,NNE,23,5.8,7.6,52,0.00,,,0.00,WUHU216HW,2013-03-24 17:22:00,
2013-03-24 18:27:00,29.7,14.2,29.99,SE,135,6.9,7.6,52,0.00,,,0.00,WUHU216HW,2013-03-24 17:27:00,
2013-03-24 18:32:00,29.7,14.6,29.99,NE,45,6.5,6.9,53,0.00,,,0.00,WUHU216HW,2013-03-24 17:32:00,
2013-03-24 18:37:00,29.5,14.5,29.99,ENE,68,12.1,12.1,53,0.00,,,0.00,WUHU216HW,2013-03-24 17:37:00,
2013-03-24 18:42:00,29.3,14.7,29.99,NE,45,7.4,12.1,54,0.00,,,0.00,WUHU216HW,2013-03-24 17:42:00,
2013-03-24 18:47:00,29.2,14.6,29.99,ESE,113,7.8,12.1,54,0.00,,,0.00,WUHU216HW,2013-03-24 17:47:00,
2013-03-24 18:52:00,29.0,14.4,29.98,ESE,113,6.9,8.1,54,0.00,,,0.00,WUHU216HW,2013-03-24 17:52:00,
2013-03-24 18:57:00,28.8,14.7,29.98,NNE,23,6.5,7.8,55,0.00,,,0.00,WUHU216HW,2013-03-24 17:57:00,
2013-03-24 19:02:00,28.8,14.7,29.99,ENE,68,4.0,7.6,55,0.00,,,0.00,WUHU216HW,2013-03-24 18:02:00,
2013-03-24 19:08:00,28.6,14.9,29.99,NE,45,8.1,8.1,56,0.00,,,0.00,WUHU216HW,2013-03-24 18:08:00,
2013-03-24 19:13:00,28.4,15.1,29.99,ENE,68,2.2,8.1,57,0.00,,,0.00,WUHU216HW,2013-03-24 18:13:00,
2013-03-24 19:18:00,28.4,15.1,29.99,ENE,68,3.8,8.1,57,0.00,,,0.00,WUHU216HW,2013-03-24 18:18:00,
2013-03-24 19:23:00,28.1,14.8,29.99,East,90,6.9,8.1,57,0.00,,,0.00,WUHU216HW,2013-03-24 18:23:00,
2013-03-24 19:28:00,28.1,14.8,29.99,NE,45,4.3,6.9,57,0.00,,,0.00,WUHU216HW,2013-03-24 18:28:00,
2013-03-24 19:33:00,27.9,15.0,29.99,East,90,7.6,7.6,58,0.00,,,0.00,WUHU216HW,2013-03-24 18:33:00,
2013-03-24 19:38:00,27.7,14.4,29.99,East,90,5.6,8.9,57,0.00,,,0.00,WUHU216HW,2013-03-24 18:38:00,
2013-03-24 19:43:00,27.7,14.9,30.00,SE,135,2.5,8.9,58,0.00,,,0.00,WUHU216HW,2013-03-24 18:43:00,
2013-03-24 19:48:00,27.5,14.7,30.00,ESE,113,4.0,6.3,58,0.00,,,0.00,WUHU216HW,2013-03-24 18:48:00,
2013-03-24 19:53:00,27.4,14.9,30.00,East,90,10.5,10.5,59,0.00,,,0.00,WUHU216HW,2013-03-24 18:53:00,
2013-03-24 19:58:00,27.4,14.9,30.00,ENE,68,6.0,10.5,59,0.00,,,0.00,WUHU216HW,2013-03-24 18:58:00,
2013-03-24 20:03:00,27.2,14.7,30.00,ENE,68,4.9,10.5,59,0.00,,,0.00,WUHU216HW,2013-03-24 19:03:00,
2013-03-24 20:08:00,27.2,14.3,30.00,ENE,68,6.9,6.9,58,0.00,,,0.00,WUHU216HW,2013-03-24 19:08:00,
2013-03-24 20:13:00,27.0,14.9,30.00,ENE,68,5.1,7.6,60,0.00,,,0.00,WUHU216HW,2013-03-24 19:13:00,
2013-03-24 20:18:00,27.0,14.9,30.00,NE,45,2.9,7.6,60,0.00,,,0.00,WUHU216HW,2013-03-24 19:18:00,
2013-03-24 20:23:00,26.8,15.1,29.99,NNE,23,2.9,5.1,61,0.00,,,0.00,WUHU216HW,2013-03-24 19:23:00,
2013-03-24 20:28:00,26.6,14.9,29.99,NE,45,5.8,5.8,61,0.00,,,0.00,WUHU216HW,2013-03-24 19:28:00,
2013-03-24 20:33:00,26.6,14.9,29.99,NNE,23,3.4,5.8,61,0.00,,,0.00,WUHU216HW,2013-03-24 19:33:00,
2013-03-24 20:38:00,26.6,15.3,29.99,East,90,4.3,5.8,62,0.00,,,0.00,WUHU216HW,2013-03-24 19:38:00,
2013-03-24 20:43:00,26.5,15.1,29.99,East,90,3.4,4.7,62,0.00,,,0.00,WUHU216HW,2013-03-24 19:43:00,
2013-03-24 20:48:00,26.3,14.9,29.99,ENE,68,5.8,5.8,62,0.00,,,0.00,WUHU216HW,2013-03-24 19:48:00,
2013-03-24 20:53:00,26.3,14.9,30.00,NE,45,4.7,5.8,62,0.00,,,0.00,WUHU216HW,2013-03-24 19:53:00,
2013-03-24 20:58:00,26.3,14.9,30.00,NE,45,4.3,5.8,62,0.00,,,0.00,WUHU216HW,2013-03-24 19:58:00,
2013-03-24 21:03:00,26.1,15.1,29.99,NE,45,2.5,4.9,63,0.00,,,0.00,WUHU216HW,2013-03-24 20:03:00,
2013-03-24 21:08:00,25.9,15.0,29.99,NE,45,4.0,5.1,63,0.00,,,0.00,WUHU216HW,2013-03-24 20:08:00,
2013-03-24 21:13:00,25.9,15.0,29.99,East,90,8.9,8.9,63,0.00,,,0.00,WUHU216HW,2013-03-24 20:13:00,
2013-03-24 21:18:00,25.9,15.0,29.99,ESE,113,7.2,8.9,63,0.00,,,0.00,WUHU216HW,2013-03-24 20:18:00,
2013-03-24 21:23:00,25.9,15.3,29.99,NE,45,2.5,8.9,64,0.00,,,0.00,WUHU216HW,2013-03-24 20:23:00,
2013-03-24 21:28:00,25.7,15.2,29.99,ESE,113,3.1,7.2,64,0.00,,,0.00,WUHU216HW,2013-03-24 20:28:00,
2013-03-24 21:33:00,25.7,15.2,29.99,East,90,4.5,7.2,64,0.00,,,0.00,WUHU216HW,2013-03-24 20:33:00,
2013-03-24 21:38:00,25.6,15.4,29.99,East,90,4.0,7.2,65,0.00,,,0.00,WUHU216HW,2013-03-24 20:38:00,
2013-03-24 21:43:00,25.6,15.4,29.99,ENE,68,4.7,5.1,65,0.00,,,0.00,WUHU216HW,2013-03-24 20:43:00,
2013-03-24 21:48:00,25.6,15.4,29.99,ENE,68,2.0,5.4,65,0.00,,,0.00,WUHU216HW,2013-03-24 20:48:00,
2013-03-24 21:53:00,25.6,15.0,29.99,ENE,68,2.9,5.4,64,0.00,,,0.00,WUHU216HW,2013-03-24 20:53:00,
2013-03-24 21:58:00,25.4,15.2,29.99,NE,45,3.8,4.9,65,0.00,,,0.00,WUHU216HW,2013-03-24 20:58:00,
2013-03-24 22:03:00,25.4,15.6,29.99,ESE,113,2.7,4.7,66,0.00,,,0.00,WUHU216HW,2013-03-24 21:03:00,
2013-03-24 22:08:00,25.4,15.6,29.99,East,90,3.6,4.7,66,0.00,,,0.00,WUHU216HW,2013-03-24 21:08:00,
2013-03-24 22:13:00,25.4,15.8,29.99,NE,45,5.8,5.8,67,0.00,,,0.00,WUHU216HW,2013-03-24 21:13:00,
2013-03-24 22:18:00,25.2,15.7,29.99,ENE,68,4.5,5.8,67,0.00,,,0.00,WUHU216HW,2013-03-24 21:18:00,
2013-03-24 22:23:00,25.2,16.0,29.99,East,90,5.4,5.8,68,0.00,,,0.00,WUHU216HW,2013-03-24 21:23:00,
2013-03-24 22:28:00,25.2,15.7,29.98,ESE,113,6.0,6.0,67,0.00,,,0.00,WUHU216HW,2013-03-24 21:28:00,
2013-03-24 22:33:00,25.2,16.0,29.98,NE,45,3.8,6.0,68,0.00,,,0.00,WUHU216HW,2013-03-24 21:33:00,
2013-03-24 22:38:00,25.2,16.4,29.98,NE,45,2.7,4.3,69,0.00,,,0.00,WUHU216HW,2013-03-24 21:38:00,
2013-03-24 22:43:00,25.0,16.2,29.98,ESE,113,1.8,6.3,69,0.00,,,0.00,WUHU216HW,2013-03-24 21:43:00,
2013-03-24 22:48:00,25.0,16.2,29.98,NE,45,1.1,6.3,69,0.00,,,0.00,WUHU216HW,2013-03-24 21:48:00,
2013-03-24 22:53:00,24.8,16.0,29.98,East,90,4.7,6.0,69,0.00,,,0.00,WUHU216HW,2013-03-24 21:53:00,
2013-03-24 22:58:00,24.8,16.4,29.98,NE,45,1.8,4.7,70,0.00,,,0.00,WUHU216HW,2013-03-24 21:58:00,
2013-03-24 23:03:00,24.8,16.0,29.98,ESE,113,7.6,7.6,69,0.00,,,0.00,WUHU216HW,2013-03-24 22:03:00,
2013-03-24 23:08:00,25.0,16.2,29.98,NE,45,5.8,7.6,69,0.00,,,0.00,WUHU216HW,2013-03-24 22:08:00,
2013-03-24 23:13:00,25.2,16.4,29.98,East,90,0.9,5.8,69,0.00,,,0.00,WUHU216HW,2013-03-24 22:13:00,
2013-03-24 23:18:00,25.2,16.7,29.98,ENE,68,2.7,5.8,70,0.00,,,0.00,WUHU216HW,2013-03-24 22:18:00,
2013-03-24 23:23:00,24.8,16.0,29.98,NE,45,6.0,6.0,69,0.00,,,0.00,WUHU216HW,2013-03-24 22:23:00,
2013-03-24 23:28:00,24.8,16.0,29.97,NE,45,2.9,6.3,69,0.00,,,0.00,WUHU216HW,2013-03-24 22:28:00,
2013-03-24 23:33:00,24.8,16.0,29.97,NE,45,5.1,6.3,69,0.00,,,0.00,WUHU216HW,2013-03-24 22:33:00,
2013-03-24 23:38:00,24.7,16.2,29.97,ENE,68,2.9,5.1,70,0.00,,,0.00,WUHU216HW,2013-03-24 22:38:00,
2013-03-24 23:43:00,24.5,16.4,29.97,NE,45,1.1,5.1,71,0.00,,,0.00,WUHU216HW,2013-03-24 22:43:00,
2013-03-24 23:48:00,24.3,16.2,29.97,ESE,113,6.5,6.5,71,0.00,,,0.00,WUHU216HW,2013-03-24 22:48:00,
2013-03-24 23:53:00,24.5,16.0,29.97,NE,45,4.7,6.5,70,0.00,,,0.00,WUHU216HW,2013-03-24 22:53:00,
2013-03-24 23:58:00,24.5,16.4,29.97,NE,45,2.9,6.5,71,0.00,,,0.00,WUHU216HW,2013-03-24 22:58:00,